Waarnemingen

Advertentie
Mijn weer
Hoorn-A, Nederland (6212): temperatuur & dauwpunt: 19.02.2018 02:00:00 - 25.02.2018 02:00:00 (CET)Hoorn-A, Nederland (6212): windsnelheid & windstoten: 19.02.2018 02:00:00 - 25.02.2018 02:00:00 (CET)Hoorn-A, Nederland (6212): windrichting: 19.02.2018 02:00:00 - 25.02.2018 02:00:00 (CET)Hoorn-A, Nederland (6212): luchtdruk: 19.02.2018 02:00:00 - 25.02.2018 02:00:00 (CET)Hoorn-A, Nederland (6212): zicht: 19.02.2018 02:00:00 - 25.02.2018 02:00:00 (CET)
Datum & Tijd tt [°C] td [°C] ff [km/u] ff [kn] fx [km/u] fx [kn] dd ppp [hPa] vv [km]
25.02.2018 02:00:00 -0,2 -7,0 50 27 50 27 ONO 1029,9 10
25.02.2018 01:00:00 0,2 -7,2 54 29 58 31 ONO 1030,0 10
25.02.2018 00:00:00 0,5 -7,3 52 28 54 29 ONO 1029,8 10
24.02.2018 23:00:00 0,9 -6,6 54 29 54 29 ONO 1029,7 10
24.02.2018 22:00:00 1,4 -6,5 54 29 54 29 ONO 1029,4 10
24.02.2018 21:00:00 1,8 -6,6 55 30 58 31 ONO 1029,0 10
24.02.2018 20:00:00 2,1 -5,9 54 29 58 31 NO 1028,6 10
24.02.2018 19:00:00 2,3 -4,4 55 30 54 29 NO 1028,3 10
24.02.2018 18:00:00 2,6 -3,8 43 23 50 27 NO 1027,7 48
24.02.2018 17:00:00 2,2 -3,3 54 29 54 29 NO 1027,5 10
24.02.2018 16:00:00 1,6 -3,7 50 27 50 27 NO 1027,6 10
24.02.2018 15:00:00 1,4 -4,2 48 26 54 29 NO 1027,6 10
24.02.2018 14:00:00 0,8 -4,7 55 30 58 31 NO 1027,5 10
24.02.2018 13:00:00 0,5 -5,5 57 31 58 31 ONO 1027,6 10
24.02.2018 12:00:00 0,4 -6,3 59 32 58 31 ONO 1027,4 10
24.02.2018 11:00:00 0,5 -6,8 55 30 54 29 ONO 1027,2 10
24.02.2018 10:00:00 0,2 -7,7 55 30 58 31 ONO 1027,0 10
24.02.2018 09:00:00 0,0 -7,6 57 31 58 31 ONO 1026,4 10
24.02.2018 08:00:00 0,3 -8,0 59 32 58 31 ONO 1025,7 10
24.02.2018 07:00:00 0,1 -7,5 55 30 54 29 ONO 1024,8 10
24.02.2018 06:00:00 -0,1 -6,9 54 29 54 29 ONO 1024,7 10
24.02.2018 05:00:00 0,2 -6,6 54 29 50 27 ONO 1024,6 10
24.02.2018 04:00:00 0,2 -5,7 52 28 50 27 ONO 1024,1 10
24.02.2018 03:00:00 0,2 -6,0 54 29 50 27 ONO 1024,2 10
24.02.2018 02:00:00 0,3 -5,9 50 27 50 27 ONO 1024,2 10
24.02.2018 01:00:00 0,5 -6,0 52 28 50 27 ONO 1024,2 10
24.02.2018 00:00:00 0,7 -5,5 54 29 54 29 ONO 1023,6 10
23.02.2018 23:00:00 0,9 -5,5 55 30 54 29 ONO 1023,9 10
23.02.2018 22:00:00 1,2 -5,5 57 31 54 29 ONO 1023,5 10
23.02.2018 21:00:00 1,4 -5,1 54 29 54 29 ONO 1023,7 10
23.02.2018 20:00:00 1,8 -4,5 40 21 50 27 NO 1023,6 38
23.02.2018 19:00:00 1,9 -4,4 44 24 47 25 NO 1023,5 10
23.02.2018 18:00:00 2,1 -3,6 46 25 50 27 NO 1022,8 10
23.02.2018 17:00:00 2,3 -3,7 50 27 47 25 NO 1022,8 10
23.02.2018 16:00:00 1,8 -4,2 36 19 43 23 NO 1023,4 21
23.02.2018 15:00:00 1,5 -4,4 41 22 40 21 ONO 1023,8 10
23.02.2018 14:00:00 1,5 -4,2 32 18 40 21 NO 1024,4 26
23.02.2018 13:00:00 1,4 -4,0 37 20 40 21 ONO 1024,9 10
23.02.2018 12:00:00 1,1 -2,5 35 19 40 21 NO 1025,2 10
23.02.2018 11:00:00 1,1 -2,1 39 21 43 23 NO 1025,4 10
23.02.2018 10:00:00 1,1 -2,7 41 22 40 21 NO 1025,1 10
23.02.2018 09:00:00 1,2 -4,6 32 18 40 21 NO 1025,1 31
23.02.2018 08:00:00 1,0 -3,4 34 18 36 19 NO 1025,2 10
23.02.2018 07:00:00 1,3 -1,6 28 15 29 16 NO 1024,9 6
23.02.2018 06:00:00 1,4 -1,7 29 16 29 16 ONO 1024,8 7
23.02.2018 05:00:00 1,5 -1,8 29 16 29 16 NO 1024,8 8
23.02.2018 04:00:00 1,7 -2,3 31 17 32 18 NO 1024,8 10
23.02.2018 03:00:00 1,8 -1,1 34 18 32 18 ONO 1025,0 7
23.02.2018 02:00:00 2,1 -1,5 28 15 29 16 NO 1025,2 8
23.02.2018 01:00:00 2,5 -0,6 26 14 29 16 ONO 1025,5 8
23.02.2018 00:00:00 2,8 -0,5 29 16 32 18 ONO 1025,6 10
22.02.2018 23:00:00 3,5 0,4 22 12 29 16 NO 1025,6 10
22.02.2018 22:00:00 3,2 -0,6 26 14 25 14 NO 1025,7 10
22.02.2018 21:00:00 3,0 -0,7 28 15 29 16 NNO 1025,6 10
22.02.2018 20:00:00 3,0 -0,9 22 12 32 18 NNO 1025,6 11
22.02.2018 19:00:00 3,0 -1,8 35 19 36 19 NO 1025,6 10
22.02.2018 18:00:00 3,2 -2,1 29 16 32 18 NO 1025,5 10
22.02.2018 17:00:00 3,1 -3,5 28 15 29 16 NNO 1025,6 10
22.02.2018 16:00:00 3,0 -3,9 25 14 29 16 NNO 1025,6 22
22.02.2018 15:00:00 3,0 -3,9 26 14 25 14 NNO 1026,0 10
22.02.2018 14:00:00 2,5 -4,5 26 14 25 14 NO 1026,7 10
22.02.2018 13:00:00 2,5 -3,9 22 12 25 14 NO 1027,1 10
22.02.2018 12:00:00 2,5 -4,3 28 15 29 16 NO 1027,3 10
22.02.2018 11:00:00 2,4 -4,7 28 15 29 16 ONO 1027,3 10
22.02.2018 10:00:00 2,4 -5,1 29 16 29 16 ONO 1027,1 10
22.02.2018 09:00:00 2,3 -5,1 31 17 32 18 ONO 1027,1 10
22.02.2018 08:00:00 2,3 -5,0 35 19 36 19 NO 1026,8 10
22.02.2018 07:00:00 2,1 -5,1 35 19 36 19 NO 1026,6 10
22.02.2018 06:00:00 2,1 -5,6 31 17 36 19 NO 1026,4 10
22.02.2018 05:00:00 2,1 -4,8 34 18 32 18 NO 1026,4 10
22.02.2018 04:00:00 2,1 -4,0 25 14 32 18 NO 1026,5 14
22.02.2018 03:00:00 2,1 -3,8 29 16 32 18 NO 1026,8 10
22.02.2018 02:00:00 2,4 -3,8 34 18 32 18 ONO 1026,7 10
22.02.2018 01:00:00 2,4 -2,3 31 17 32 18 NO 1026,9 10
22.02.2018 00:00:00 2,5 -2,6 29 16 29 16 NO 1027,2 10
21.02.2018 23:00:00 2,6 -3,1 29 16 29 16 NO 1027,2 10
21.02.2018 22:00:00 2,6 -3,0 31 17 32 18 NO 1027,3 10
21.02.2018 21:00:00 2,7 -3,5 34 18 32 18 NO 1027,0 10
21.02.2018 20:00:00 3,0 -3,3 31 17 32 18 NNO 1026,9 10
21.02.2018 19:00:00 3,3 -2,1 26 14 29 16 NNO 1026,5 10
21.02.2018 18:00:00 3,2 -2,5 22 12 29 16 NNO 1026,4 10
21.02.2018 17:00:00 3,2 -2,2 21 11 25 14 NNO 1026,3 10
21.02.2018 16:00:00 3,1 -1,8 22 12 25 14 NNO 1026,6 10
21.02.2018 15:00:00 3,2 -0,8 13 7 18 10 NNO 1026,7 8
21.02.2018 14:00:00 3,1 -1,7 11 6 14 8 NNO 1027,2 9
21.02.2018 13:00:00 3,1 -1,2 13 7 14 8 NO 1027,6 8
21.02.2018 12:00:00 3,1 -1,2 7 4 11 6 NO 1027,9 8
21.02.2018 11:00:00 3,2 -0,9 11 6 14 8 ONO 1027,8 7
21.02.2018 10:00:00 3,1 -0,8 16 9 18 10 NO 1027,5 7
21.02.2018 09:00:00 3,3 -0,8 18 10 18 10 NO 1027,2 8
21.02.2018 08:00:00 3,5 -2,2 18 10 18 10 NO 1026,7 10
21.02.2018 07:00:00 3,7 -1,4 16 9 18 10 NNO 1026,7 10
21.02.2018 06:00:00 3,7 -0,3 16 9 22 12 NNO 1026,8 8
21.02.2018 05:00:00 3,8 -0,6 22 12 22 12 NNO 1026,8 8
21.02.2018 04:00:00 3,6 -1,1 15 8 18 10 N 1027,0 8
21.02.2018 03:00:00 3,6 -0,9 18 10 18 10 NO 1026,5 9
21.02.2018 02:00:00 3,7 -1,4 21 11 22 12 NO 1026,4 9
21.02.2018 01:00:00 3,7 -0,1 26 14 29 16 NO 1025,7 7
21.02.2018 00:00:00 3,9 0,1 29 16 32 18 NO 1025,3 7
20.02.2018 23:00:00 4,1 0,4 35 19 32 18 NNO 1025,1 6
20.02.2018 22:00:00 4,3 0,5 31 17 32 18 NNO 1024,5 6
20.02.2018 21:00:00 4,3 -0,7 31 17 29 16 NNO 1024,2 9
20.02.2018 20:00:00 4,2 0,1 29 16 29 16 NNO 1023,6 6
20.02.2018 19:00:00 4,1 -0,1 26 14 25 14 NNO 1022,4 7
20.02.2018 18:00:00 4,0 0,1 22 12 22 12 NNO 1021,7 6
20.02.2018 17:00:00 3,9 -0,3 18 10 25 14 NO 1020,9 7
20.02.2018 16:00:00 3,8 0,0 11 6 14 8 NO 1020,6 7
20.02.2018 15:00:00 3,9 -0,7 15 8 22 12 ONO 1020,4 9
20.02.2018 14:00:00 3,7 -0,6 16 9 18 10 O 1020,1 7
20.02.2018 13:00:00 3,7 -0,4 16 9 18 10 O 1020,2 6
20.02.2018 12:00:00 3,7 -0,6 15 8 18 10 O 1020,2 7
20.02.2018 11:00:00 3,6 -1,2 16 9 22 12 ZO 1020,0 8
20.02.2018 10:00:00 3,5 -0,7 14 8 18 10 O 1019,7 8
20.02.2018 09:00:00 3,6 -0,9 16 9 22 12 O 1019,2 8
20.02.2018 08:00:00 3,7 -0,8 21 11 22 12 O 1018,9 9
20.02.2018 07:00:00 3,7 -0,4 22 12 22 12 O 1018,8 10
20.02.2018 06:00:00 3,7 -0,7 21 11 22 12 ONO 1018,6 9
20.02.2018 05:00:00 3,6 -0,5 22 12 22 12 ONO 1018,6 9
20.02.2018 04:00:00 3,9 -0,3 18 10 18 10 ONO 1018,8 10
20.02.2018 03:00:00 4,1 0,5 11 6 14 8 ONO 1018,9 9
20.02.2018 02:00:00 4,0 1,0 9 5 14 8 ZO 1018,8 9
20.02.2018 01:00:00 4,1 1,6 13 7 14 8 O 1018,3 9
20.02.2018 00:00:00 4,3 1,4 16 9 18 10 ZO 1018,0 -
19.02.2018 23:00:00 4,2 1,9 16 9 18 10 ZZO 1018,1 -
19.02.2018 22:00:00 4,2 1,9 18 10 18 10 ZZO 1017,8 -
19.02.2018 21:00:00 3,9 2,0 21 11 18 10 ZZO 1018,1 -
19.02.2018 20:00:00 3,7 2,2 16 9 18 10 ZZO 1018,0 -
19.02.2018 19:00:00 3,6 2,2 21 11 22 12 ZZO 1017,6 -
19.02.2018 18:00:00 3,8 1,9 22 12 25 14 ZZO 1017,2 5
19.02.2018 17:00:00 3,5 2,2 22 12 25 14 ZZO 1017,0 3,8
19.02.2018 16:00:00 3,3 2,0 22 12 25 14 Z 1017,2 2,1
19.02.2018 15:00:00 3,3 1,8 24 13 25 14 ZZO 1017,4 2,7
19.02.2018 14:00:00 3,6 2,0 22 12 25 14 ZZO 1017,5 3,2
19.02.2018 13:00:00 4,1 2,5 26 14 25 14 Z 1017,7 4,0
19.02.2018 12:00:00 4,3 2,7 26 14 29 16 Z 1017,9 4,7
19.02.2018 11:00:00 4,3 2,7 29 16 29 16 Z 1018,0 5
19.02.2018 10:00:00 4,6 3,0 28 15 29 16 Z 1018,2 5
19.02.2018 09:00:00 4,9 3,2 29 16 29 16 Z 1018,3 5
19.02.2018 08:00:00 4,9 3,1 29 16 29 16 Z 1018,4 5
19.02.2018 07:00:00 5,0 3,1 25 14 29 16 ZZO 1018,3 7
19.02.2018 06:00:00 5,2 2,9 34 18 29 16 Z 1018,5 8
19.02.2018 05:00:00 5,5 2,7 31 17 29 16 ZZO 1018,9 10
19.02.2018 04:00:00 5,7 3,0 29 16 29 16 ZZO 1019,3 10
19.02.2018 03:00:00 6,0 3,1 28 15 29 16 Z 1019,8 10
19.02.2018 02:00:00 6,0 3,4 28 15 29 16 ZZO 1020,5 10

tt = temperatuur
td = dauwpunt
ff = windsnelheid
fx = windstoten
dd = windrichting
ppp = luchtdruk
vv = zicht

Weerstations in de omgeving